Time,TemperatureF,DewpointF,PressureIn,WindDirection,WindDirectionDegrees,WindSpeedMPH,WindSpeedGustMPH,Humidity,HourlyPrecipIn,Conditions,Clouds,dailyrainin,SoftwareType,DateUTC
2013-10-21 00:04:00,34.9,29.1,29.98,SW,222,3.0,10.0,79,0.00,,,0.00,meteohub,2013-10-21 06:04:00,
2013-10-21 00:09:00,34.7,28.9,29.98,WSW,245,0.0,10.0,79,0.00,,,0.00,meteohub,2013-10-21 06:09:00,
2013-10-21 00:14:00,34.7,28.9,29.99,NNW,338,1.0,10.0,79,0.00,,,0.00,meteohub,2013-10-21 06:14:00,
2013-10-21 00:19:00,34.3,27.5,29.99,WNW,297,3.0,10.0,76,0.00,,,0.00,meteohub,2013-10-21 06:19:00,
2013-10-21 00:24:00,33.8,27.3,29.99,NW,314,2.0,8.0,77,0.00,,,0.00,meteohub,2013-10-21 06:24:00,
2013-10-21 00:29:00,33.3,27.5,29.99,NNW,336,7.0,8.0,79,0.00,,,0.00,meteohub,2013-10-21 06:29:00,
2013-10-21 00:34:00,32.9,27.7,29.99,NW,322,4.0,10.0,81,0.00,,,0.00,meteohub,2013-10-21 06:34:00,
2013-10-21 00:39:00,32.5,27.7,29.99,WNW,299,5.0,12.0,82,0.00,,,0.00,meteohub,2013-10-21 06:39:00,
2013-10-21 00:45:00,32.4,27.5,29.99,NNW,329,5.0,12.0,82,0.00,,,0.00,meteohub,2013-10-21 06:45:00,
2013-10-21 00:50:00,32.2,27.7,29.99,NNW,330,8.0,12.0,83,0.00,,,0.00,meteohub,2013-10-21 06:50:00,
2013-10-21 00:55:00,32.0,27.5,29.99,NNW,329,7.0,11.0,83,0.00,,,0.00,meteohub,2013-10-21 06:55:00,
2013-10-21 01:00:00,31.8,27.3,29.98,NW,319,2.0,10.0,83,0.00,,,0.00,meteohub,2013-10-21 07:00:00,
2013-10-21 01:05:00,31.6,27.3,29.98,NNW,330,2.0,9.0,84,0.00,,,0.00,meteohub,2013-10-21 07:05:00,
2013-10-21 01:10:00,31.5,27.1,29.98,NW,316,0.0,9.0,84,0.00,,,0.00,meteohub,2013-10-21 07:10:00,
2013-10-21 01:15:00,31.3,27.0,29.99,WNW,291,3.0,7.0,84,0.00,,,0.00,meteohub,2013-10-21 07:15:00,
2013-10-21 01:20:00,31.1,26.8,29.99,WNW,284,1.0,6.0,84,0.00,,,0.00,meteohub,2013-10-21 07:20:00,
2013-10-21 01:25:00,30.9,26.6,29.99,West,281,3.0,5.0,84,0.00,,,0.00,meteohub,2013-10-21 07:25:00,
2013-10-21 01:30:00,30.9,26.6,29.99,WNW,302,1.0,6.0,84,0.00,,,0.00,meteohub,2013-10-21 07:30:00,
2013-10-21 01:35:00,30.7,26.4,29.99,WNW,285,1.0,6.0,84,0.00,,,0.00,meteohub,2013-10-21 07:35:00,
2013-10-21 01:40:00,30.9,26.6,30.00,NW,314,3.0,6.0,84,0.00,,,0.00,meteohub,2013-10-21 07:40:00,
2013-10-21 01:45:00,30.7,26.4,30.00,WNW,297,2.0,4.0,84,0.00,,,0.00,meteohub,2013-10-21 07:45:00,
2013-10-21 01:50:00,30.6,26.1,30.01,WNW,302,2.0,4.0,83,0.00,,,0.00,meteohub,2013-10-21 07:50:00,
2013-10-21 01:55:00,30.4,26.1,30.01,WNW,300,0.0,4.0,84,0.00,,,0.00,meteohub,2013-10-21 07:55:00,
2013-10-21 02:01:00,30.6,26.2,30.01,WNW,301,1.0,4.0,84,0.00,,,0.00,meteohub,2013-10-21 08:01:00,
2013-10-21 02:06:00,30.7,26.4,30.01,NW,308,1.0,4.0,84,0.00,,,0.00,meteohub,2013-10-21 08:06:00,
2013-10-21 02:11:00,30.9,26.4,30.01,NW,306,1.0,3.0,83,0.00,,,0.00,meteohub,2013-10-21 08:11:00,
2013-10-21 02:16:00,30.9,26.4,30.02,NW,309,0.0,3.0,83,0.00,,,0.00,meteohub,2013-10-21 08:16:00,
2013-10-21 02:21:00,31.1,26.6,30.02,WNW,295,0.0,3.0,83,0.00,,,0.00,meteohub,2013-10-21 08:21:00,
2013-10-21 02:26:00,31.1,26.6,30.02,NNW,330,2.0,2.0,83,0.00,,,0.00,meteohub,2013-10-21 08:26:00,
2013-10-21 02:31:00,30.9,26.4,30.02,NNW,328,3.0,3.0,83,0.00,,,0.00,meteohub,2013-10-21 08:31:00,
2013-10-21 02:36:00,30.9,26.4,30.02,NNW,342,4.0,4.0,83,0.00,,,0.00,meteohub,2013-10-21 08:36:00,
2013-10-21 02:41:00,30.6,26.1,30.03,NNW,329,4.0,5.0,83,0.00,,,0.00,meteohub,2013-10-21 08:41:00,
2013-10-21 02:46:00,30.2,25.9,30.02,NW,326,4.0,6.0,84,0.00,,,0.00,meteohub,2013-10-21 08:46:00,
2013-10-21 02:51:00,30.0,26.1,30.02,NW,321,4.0,6.0,85,0.00,,,0.00,meteohub,2013-10-21 08:51:00,
2013-10-21 02:56:00,30.0,26.1,30.02,NW,324,5.0,6.0,85,0.00,,,0.00,meteohub,2013-10-21 08:56:00,
2013-10-21 03:01:00,30.0,26.1,30.03,NNW,328,1.0,6.0,85,0.00,,,0.00,meteohub,2013-10-21 09:01:00,
2013-10-21 03:07:00,29.7,26.1,30.03,NW,312,1.0,6.0,86,0.00,,,0.00,meteohub,2013-10-21 09:07:00,
2013-10-21 03:12:00,29.8,26.2,30.03,NW,317,1.0,5.0,86,0.00,,,0.00,meteohub,2013-10-21 09:12:00,
2013-10-21 03:17:00,29.8,26.2,30.03,NW,324,1.0,2.0,86,0.00,,,0.00,meteohub,2013-10-21 09:17:00,
2013-10-21 03:22:00,30.0,26.1,30.03,WNW,288,2.0,2.0,85,0.00,,,0.00,meteohub,2013-10-21 09:22:00,
2013-10-21 03:27:00,30.0,26.1,30.03,NW,311,2.0,3.0,85,0.00,,,0.00,meteohub,2013-10-21 09:27:00,
2013-10-21 03:32:00,30.2,25.9,30.03,West,280,1.0,3.0,84,0.00,,,0.00,meteohub,2013-10-21 09:32:00,
2013-10-21 03:37:00,30.0,25.7,30.03,ESE,110,0.0,3.0,84,0.00,,,0.00,meteohub,2013-10-21 09:37:00,
2013-10-21 03:42:00,29.5,25.5,30.03,SSE,160,1.0,4.0,85,0.00,,,0.00,meteohub,2013-10-21 09:42:00,
2013-10-21 03:47:00,29.3,25.7,30.03,SSE,153,0.0,4.0,86,0.00,,,0.00,meteohub,2013-10-21 09:47:00,
2013-10-21 03:52:00,29.1,25.5,30.03,SSW,210,0.0,4.0,86,0.00,,,0.00,meteohub,2013-10-21 09:52:00,
2013-10-21 03:57:00,29.1,25.7,30.03,SSW,208,0.0,3.0,87,0.00,,,0.00,meteohub,2013-10-21 09:57:00,
2013-10-21 04:02:00,29.3,26.2,30.04,SSW,210,0.0,2.0,88,0.00,,,0.00,meteohub,2013-10-21 10:02:00,
2013-10-21 04:07:00,29.5,26.6,30.04,SSW,210,0.0,1.0,89,0.00,,,0.00,meteohub,2013-10-21 10:07:00,
2013-10-21 04:12:00,29.7,26.8,30.04,SSW,210,0.0,0.0,89,0.00,,,0.00,meteohub,2013-10-21 10:12:00,
2013-10-21 04:17:00,29.7,26.6,30.04,NW,323,1.0,1.0,88,0.00,,,0.00,meteohub,2013-10-21 10:17:00,
2013-10-21 04:22:00,29.7,26.2,30.04,NW,323,0.0,2.0,87,0.00,,,0.00,meteohub,2013-10-21 10:22:00,
2013-10-21 04:27:00,29.1,25.5,30.04,NW,307,0.0,2.0,86,0.00,,,0.00,meteohub,2013-10-21 10:27:00,
2013-10-21 04:32:00,28.9,25.9,30.05,NW,307,0.0,2.0,88,0.00,,,0.00,meteohub,2013-10-21 10:32:00,
2013-10-21 04:37:00,29.1,25.7,30.05,NW,308,0.0,2.0,87,0.00,,,0.00,meteohub,2013-10-21 10:37:00,
2013-10-21 04:42:00,28.9,25.3,30.05,West,281,2.0,2.0,86,0.00,,,0.00,meteohub,2013-10-21 10:42:00,
2013-10-21 04:47:00,29.1,25.5,30.05,WSW,248,2.0,2.0,86,0.00,,,0.00,meteohub,2013-10-21 10:47:00,
2013-10-21 04:52:00,29.5,25.5,30.05,West,271,1.0,3.0,85,0.00,,,0.00,meteohub,2013-10-21 10:52:00,
2013-10-21 04:57:00,29.5,25.5,30.05,WNW,298,1.0,3.0,85,0.00,,,0.00,meteohub,2013-10-21 10:57:00,
2013-10-21 05:02:00,29.1,24.6,30.05,NW,308,1.0,3.0,83,0.00,,,0.00,meteohub,2013-10-21 11:02:00,
2013-10-21 05:07:00,28.9,24.8,30.05,NW,319,3.0,3.0,84,0.00,,,0.00,meteohub,2013-10-21 11:07:00,
2013-10-21 05:12:00,29.3,25.3,30.05,NNW,339,5.0,6.0,85,0.00,,,0.00,meteohub,2013-10-21 11:12:00,
2013-10-21 05:17:00,29.5,25.2,30.06,NW,315,6.0,6.0,84,0.00,,,0.00,meteohub,2013-10-21 11:17:00,
2013-10-21 05:22:00,29.3,25.2,30.06,NW,326,4.0,7.0,84,0.00,,,0.00,meteohub,2013-10-21 11:22:00,
2013-10-21 05:27:00,29.3,25.2,30.06,NW,326,5.0,7.0,84,0.00,,,0.00,meteohub,2013-10-21 11:27:00,
2013-10-21 05:32:00,29.1,25.0,30.06,NNW,338,5.0,7.0,84,0.00,,,0.00,meteohub,2013-10-21 11:32:00,
2013-10-21 05:37:00,28.9,24.8,30.06,NW,314,5.0,8.0,84,0.00,,,0.00,meteohub,2013-10-21 11:37:00,
2013-10-21 05:42:00,28.2,24.3,30.06,NNW,330,4.0,8.0,85,0.00,,,0.00,meteohub,2013-10-21 11:42:00,
2013-10-21 05:47:00,28.0,24.4,30.06,NW,319,3.0,8.0,86,0.00,,,0.00,meteohub,2013-10-21 11:47:00,
2013-10-21 05:52:00,27.7,24.3,30.06,NNW,333,3.0,6.0,87,0.00,,,0.00,meteohub,2013-10-21 11:52:00,
2013-10-21 05:57:00,27.3,23.9,30.06,North,10,0.0,5.0,87,0.00,,,0.00,meteohub,2013-10-21 11:57:00,
2013-10-21 06:02:00,27.0,23.9,30.06,NNE,23,3.0,4.0,88,0.00,,,0.00,meteohub,2013-10-21 12:02:00,
2013-10-21 06:07:00,26.8,23.7,30.07,NNW,336,2.0,4.0,88,0.00,,,0.00,meteohub,2013-10-21 12:07:00,
2013-10-21 06:12:00,26.4,23.5,30.07,NNW,332,3.0,5.0,89,0.00,,,0.00,meteohub,2013-10-21 12:12:00,
2013-10-21 06:17:00,26.4,23.5,30.07,NNW,340,2.0,5.0,89,0.00,,,0.00,meteohub,2013-10-21 12:17:00,
2013-10-21 06:22:00,26.6,23.7,30.08,NNW,340,2.0,5.0,89,0.00,,,0.00,meteohub,2013-10-21 12:22:00,
2013-10-21 06:27:00,27.0,24.1,30.08,NW,308,2.0,6.0,89,0.00,,,0.00,meteohub,2013-10-21 12:27:00,
2013-10-21 06:32:00,26.8,23.7,30.07,NW,323,2.0,6.0,88,0.00,,,0.00,meteohub,2013-10-21 12:32:00,
2013-10-21 06:37:00,26.8,23.7,30.08,NW,317,2.0,7.0,88,0.00,,,0.00,meteohub,2013-10-21 12:37:00,
2013-10-21 06:42:00,26.6,23.7,30.08,NNW,340,5.0,7.0,89,0.00,,,0.00,meteohub,2013-10-21 12:42:00,
2013-10-21 06:47:00,27.0,23.9,30.08,NW,314,1.0,7.0,88,0.00,,,0.00,meteohub,2013-10-21 12:47:00,
2013-10-21 06:52:00,27.0,23.9,30.08,West,279,0.0,6.0,88,0.00,,,0.00,meteohub,2013-10-21 12:52:00,
2013-10-21 06:57:00,27.0,23.9,30.08,SW,221,1.0,6.0,88,0.00,,,0.00,meteohub,2013-10-21 12:57:00,
2013-10-21 07:02:00,26.2,22.8,30.09,South,186,1.0,2.0,87,0.00,,,0.00,meteohub,2013-10-21 13:02:00,
2013-10-21 07:07:00,26.1,23.0,30.09,SW,225,0.0,2.0,88,0.00,,,0.00,meteohub,2013-10-21 13:07:00,
2013-10-21 07:12:00,25.9,23.0,30.09,SW,225,0.0,2.0,89,0.00,,,0.00,meteohub,2013-10-21 13:12:00,
2013-10-21 07:17:00,26.1,23.2,30.09,SW,225,0.0,2.0,89,0.00,,,0.00,meteohub,2013-10-21 13:17:00,
2013-10-21 07:22:00,26.6,23.2,30.09,WSW,248,1.0,1.0,87,0.00,,,0.00,meteohub,2013-10-21 13:22:00,
2013-10-21 07:27:00,26.8,23.2,30.09,West,281,3.0,3.0,86,0.00,,,0.00,meteohub,2013-10-21 13:27:00,
2013-10-21 07:32:00,27.1,23.0,30.10,WSW,252,2.0,3.0,84,0.00,,,0.00,meteohub,2013-10-21 13:32:00,
2013-10-21 07:37:00,27.7,23.5,30.10,WSW,243,3.0,3.0,84,0.00,,,0.00,meteohub,2013-10-21 13:37:00,
2013-10-21 07:42:00,28.0,23.5,30.10,WSW,248,4.0,4.0,83,0.00,,,0.00,meteohub,2013-10-21 13:42:00,
2013-10-21 07:47:00,28.4,23.5,30.10,WSW,245,0.0,5.0,82,0.00,,,0.00,meteohub,2013-10-21 13:47:00,
2013-10-21 07:52:00,29.1,23.7,30.11,WSW,245,0.0,5.0,80,0.00,,,0.00,meteohub,2013-10-21 13:52:00,
2013-10-21 07:57:00,29.7,23.9,30.11,WSW,245,0.0,5.0,79,0.00,,,0.00,meteohub,2013-10-21 13:57:00,
2013-10-21 08:02:00,30.6,23.9,30.11,West,281,2.0,2.0,76,0.00,,,0.00,meteohub,2013-10-21 14:02:00,
2013-10-21 08:07:00,30.0,23.7,30.12,WSW,254,1.0,3.0,77,0.00,,,0.00,meteohub,2013-10-21 14:07:00,
2013-10-21 08:12:00,30.0,23.7,30.12,SW,215,0.0,3.0,77,0.00,,,0.00,meteohub,2013-10-21 14:12:00,
2013-10-21 08:17:00,30.4,23.4,30.12,West,263,3.0,3.0,75,0.00,,,0.00,meteohub,2013-10-21 14:17:00,
2013-10-21 08:22:00,30.4,22.8,30.12,West,274,3.0,5.0,73,0.00,,,0.00,meteohub,2013-10-21 14:22:00,
2013-10-21 08:27:00,30.7,23.2,30.12,West,281,3.0,5.0,73,0.00,,,0.00,meteohub,2013-10-21 14:27:00,
2013-10-21 08:32:00,30.7,22.8,30.13,WNW,284,1.0,5.0,72,0.00,,,0.00,meteohub,2013-10-21 14:32:00,
2013-10-21 08:37:00,30.9,22.6,30.13,NNW,328,1.0,5.0,71,0.00,,,0.00,meteohub,2013-10-21 14:37:00,
2013-10-21 08:42:00,30.9,22.3,30.13,WNW,298,1.0,5.0,70,0.00,,,0.00,meteohub,2013-10-21 14:42:00,
2013-10-21 08:47:00,31.3,21.9,30.13,NW,315,5.0,5.0,68,0.00,,,0.00,meteohub,2013-10-21 14:47:00,
2013-10-21 08:52:00,31.5,22.1,30.13,NNW,347,4.0,7.0,68,0.00,,,0.00,meteohub,2013-10-21 14:52:00,
2013-10-21 08:57:00,31.6,22.3,30.13,NW,323,4.0,7.0,68,0.00,,,0.00,meteohub,2013-10-21 14:57:00,
2013-10-21 09:02:00,31.8,21.7,30.13,NNW,345,2.0,8.0,66,0.00,,,0.00,meteohub,2013-10-21 15:02:00,
2013-10-21 09:07:00,32.4,21.9,30.13,North,358,5.0,8.0,65,0.00,,,0.00,meteohub,2013-10-21 15:07:00,
2013-10-21 09:12:00,32.7,21.9,30.14,NNE,32,4.0,8.0,64,0.00,,,0.00,meteohub,2013-10-21 15:12:00,
2013-10-21 09:17:00,33.1,22.3,30.14,NNE,19,4.0,10.0,64,0.00,,,0.00,meteohub,2013-10-21 15:17:00,
2013-10-21 09:22:00,33.4,22.3,30.14,North,11,2.0,10.0,63,0.00,,,0.00,meteohub,2013-10-21 15:22:00,
2013-10-21 09:27:00,33.6,21.6,30.14,NW,316,7.0,10.0,61,0.00,,,0.00,meteohub,2013-10-21 15:27:00,
2013-10-21 09:32:00,33.8,21.4,30.14,NNW,328,5.0,8.0,60,0.00,,,0.00,meteohub,2013-10-21 15:32:00,
2013-10-21 09:37:00,34.0,21.6,30.14,NNE,18,6.0,8.0,60,0.00,,,0.00,meteohub,2013-10-21 15:37:00,
2013-10-21 09:42:00,34.3,22.3,30.14,East,79,2.0,8.0,61,0.00,,,0.00,meteohub,2013-10-21 15:42:00,
2013-10-21 09:47:00,34.9,23.2,30.14,NE,56,1.0,8.0,62,0.00,,,0.00,meteohub,2013-10-21 15:47:00,
2013-10-21 09:52:00,36.1,24.1,30.15,ESE,118,1.0,6.0,61,0.00,,,0.00,meteohub,2013-10-21 15:52:00,
2013-10-21 09:57:00,36.3,23.4,30.15,NW,306,0.0,7.0,59,0.00,,,0.00,meteohub,2013-10-21 15:57:00,
2013-10-21 10:02:00,36.3,22.1,30.14,East,98,0.0,7.0,56,0.00,,,0.00,meteohub,2013-10-21 16:02:00,
2013-10-21 10:07:00,36.9,22.6,30.14,SW,222,0.0,7.0,56,0.00,,,0.00,meteohub,2013-10-21 16:07:00,
2013-10-21 10:12:00,37.4,21.9,30.14,WSW,257,2.0,4.0,53,0.00,,,0.00,meteohub,2013-10-21 16:12:00,
2013-10-21 10:17:00,37.8,21.7,30.14,SW,221,0.0,4.0,52,0.00,,,0.00,meteohub,2013-10-21 16:17:00,
2013-10-21 10:22:00,37.9,21.9,30.14,NE,34,5.0,5.0,52,0.00,,,0.00,meteohub,2013-10-21 16:22:00,
2013-10-21 10:27:00,37.6,21.0,30.14,NE,44,2.0,6.0,51,0.00,,,0.00,meteohub,2013-10-21 16:27:00,
2013-10-21 10:32:00,37.6,19.2,30.14,WNW,298,0.0,10.0,47,0.00,,,0.00,meteohub,2013-10-21 16:32:00,
2013-10-21 10:37:00,37.9,19.0,30.14,West,269,2.0,10.0,46,0.00,,,0.00,meteohub,2013-10-21 16:37:00,
2013-10-21 10:42:00,38.5,19.9,30.13,WSW,257,0.0,5.0,47,0.00,,,0.00,meteohub,2013-10-21 16:42:00,
2013-10-21 10:47:00,39.0,19.9,30.13,WSW,257,0.0,5.0,46,0.00,,,0.00,meteohub,2013-10-21 16:47:00,
2013-10-21 10:52:00,39.6,19.9,30.13,WNW,285,2.0,5.0,45,0.00,,,0.00,meteohub,2013-10-21 16:52:00,
2013-10-21 10:57:00,39.4,20.3,30.13,NNE,27,1.0,3.0,46,0.00,,,0.00,meteohub,2013-10-21 16:57:00,
2013-10-21 11:02:00,39.9,19.8,30.13,ESE,120,3.0,7.0,44,0.00,,,0.00,meteohub,2013-10-21 17:02:00,
2013-10-21 11:07:00,40.1,19.9,30.13,ESE,111,5.0,10.0,44,0.00,,,0.00,meteohub,2013-10-21 17:07:00,
2013-10-21 11:12:00,39.7,20.1,30.13,NE,49,3.0,10.0,45,0.00,,,0.00,meteohub,2013-10-21 17:12:00,
2013-10-21 11:17:00,40.6,20.5,30.13,East,99,7.0,10.0,44,0.00,,,0.00,meteohub,2013-10-21 17:17:00,
2013-10-21 11:22:00,40.5,19.8,30.12,SSE,162,4.0,9.0,43,0.00,,,0.00,meteohub,2013-10-21 17:22:00,
2013-10-21 11:27:00,41.2,19.8,30.12,SW,221,7.0,8.0,42,0.00,,,0.00,meteohub,2013-10-21 17:27:00,
2013-10-21 11:32:00,41.5,19.6,30.12,ENE,77,3.0,8.0,41,0.00,,,0.00,meteohub,2013-10-21 17:32:00,
2013-10-21 11:37:00,41.9,20.5,30.12,East,101,4.0,8.0,42,0.00,,,0.00,meteohub,2013-10-21 17:37:00,
2013-10-21 11:42:00,41.2,18.7,30.12,SW,231,1.0,10.0,40,0.00,,,0.00,meteohub,2013-10-21 17:42:00,
2013-10-21 11:47:00,41.7,18.0,30.12,South,173,6.0,10.0,38,0.00,,,0.00,meteohub,2013-10-21 17:47:00,
2013-10-21 11:52:00,42.1,18.9,30.12,SE,135,0.0,10.0,39,0.00,,,0.00,meteohub,2013-10-21 17:52:00,
2013-10-21 11:57:00,42.1,19.6,30.13,ENE,72,4.0,9.0,40,0.00,,,0.00,meteohub,2013-10-21 17:57:00,
2013-10-21 12:02:00,42.6,18.1,30.13,ENE,66,4.0,9.0,37,0.00,,,0.00,meteohub,2013-10-21 18:02:00,
2013-10-21 12:07:00,42.4,18.7,30.12,ENE,73,1.0,9.0,38,0.00,,,0.00,meteohub,2013-10-21 18:07:00,
2013-10-21 12:12:00,42.4,18.0,30.12,SE,137,0.0,8.0,37,0.00,,,0.00,meteohub,2013-10-21 18:12:00,
2013-10-21 12:17:00,43.2,19.2,30.12,NE,50,6.0,8.0,38,0.00,,,0.00,meteohub,2013-10-21 18:17:00,
2013-10-21 12:22:00,43.2,18.7,30.12,NE,38,5.0,10.0,37,0.00,,,0.00,meteohub,2013-10-21 18:22:00,
2013-10-21 12:27:00,43.3,18.1,30.12,NNW,335,2.0,10.0,36,0.00,,,0.00,meteohub,2013-10-21 18:27:00,
2013-10-21 12:32:00,43.9,18.7,30.12,NE,51,5.0,10.0,36,0.00,,,0.00,meteohub,2013-10-21 18:32:00,
2013-10-21 12:37:00,43.7,19.0,30.12,NW,321,2.0,9.0,37,0.00,,,0.00,meteohub,2013-10-21 18:37:00,
2013-10-21 12:42:00,44.4,17.8,30.12,ENE,72,4.0,9.0,34,0.00,,,0.00,meteohub,2013-10-21 18:42:00,
2013-10-21 12:47:00,45.0,17.6,30.11,NNW,340,1.0,9.0,33,0.00,,,0.00,meteohub,2013-10-21 18:47:00,
2013-10-21 12:52:00,45.1,17.8,30.11,NNW,336,1.0,7.0,33,0.00,,,0.00,meteohub,2013-10-21 18:52:00,
2013-10-21 12:57:00,45.1,18.5,30.10,NNE,32,9.0,9.0,34,0.00,,,0.00,meteohub,2013-10-21 18:57:00,
2013-10-21 13:02:00,45.0,17.6,30.11,NNE,23,2.0,12.0,33,0.00,,,0.00,meteohub,2013-10-21 19:02:00,
2013-10-21 13:07:00,45.1,17.8,30.10,East,94,6.0,12.0,33,0.00,,,0.00,meteohub,2013-10-21 19:07:00,
2013-10-21 13:12:00,45.3,18.0,30.10,ENE,71,1.0,12.0,33,0.00,,,0.00,meteohub,2013-10-21 19:12:00,
2013-10-21 13:17:00,45.9,16.9,30.09,NNW,340,1.0,8.0,31,0.00,,,0.00,meteohub,2013-10-21 19:17:00,
2013-10-21 13:22:00,46.2,17.2,30.09,East,95,0.0,8.0,31,0.00,,,0.00,meteohub,2013-10-21 19:22:00,
2013-10-21 13:27:00,46.9,17.1,30.09,NE,44,10.0,10.0,30,0.00,,,0.00,meteohub,2013-10-21 19:27:00,
2013-10-21 13:32:00,46.8,16.2,30.08,NNE,25,5.0,11.0,29,0.00,,,0.00,meteohub,2013-10-21 19:32:00,
2013-10-21 13:37:00,46.4,15.8,30.08,North,357,4.0,13.0,29,0.00,,,0.00,meteohub,2013-10-21 19:37:00,
2013-10-21 13:42:00,47.1,16.5,30.08,NNW,333,2.0,13.0,29,0.00,,,0.00,meteohub,2013-10-21 19:42:00,
2013-10-21 13:47:00,47.5,16.0,30.07,NNE,18,5.0,11.0,28,0.00,,,0.00,meteohub,2013-10-21 19:47:00,
2013-10-21 13:52:00,48.2,15.8,30.07,WNW,282,4.0,8.0,27,0.00,,,0.00,meteohub,2013-10-21 19:52:00,
2013-10-21 13:57:00,48.6,14.4,30.06,NE,37,3.0,7.0,25,0.00,,,0.00,meteohub,2013-10-21 19:57:00,
2013-10-21 14:02:00,48.2,14.0,30.06,ENE,70,5.0,7.0,25,0.00,,,0.00,meteohub,2013-10-21 20:02:00,
2013-10-21 14:07:00,48.7,13.5,30.06,East,96,2.0,9.0,24,0.00,,,0.00,meteohub,2013-10-21 20:07:00,
2013-10-21 14:12:00,49.3,14.0,30.06,NNE,29,9.0,9.0,24,0.00,,,0.00,meteohub,2013-10-21 20:12:00,
2013-10-21 14:17:00,48.9,11.7,30.06,NNW,327,6.0,15.0,22,0.00,,,0.00,meteohub,2013-10-21 20:17:00,
2013-10-21 14:22:00,49.3,10.9,30.07,WNW,287,4.0,15.0,21,0.00,,,0.00,meteohub,2013-10-21 20:22:00,
2013-10-21 14:27:00,49.8,10.4,30.06,NNW,330,8.0,15.0,20,0.00,,,0.00,meteohub,2013-10-21 20:27:00,
2013-10-21 14:32:00,50.4,11.8,30.06,North,11,11.0,13.0,21,0.00,,,0.00,meteohub,2013-10-21 20:32:00,
2013-10-21 14:37:00,50.4,9.7,30.06,West,273,4.0,18.0,19,0.00,,,0.00,meteohub,2013-10-21 20:37:00,
2013-10-21 14:42:00,50.5,8.6,30.06,NNW,332,10.0,18.0,18,0.00,,,0.00,meteohub,2013-10-21 20:42:00,
2013-10-21 14:47:00,50.2,8.2,30.06,ENE,70,5.0,18.0,18,0.00,,,0.00,meteohub,2013-10-21 20:47:00,
2013-10-21 14:52:00,50.5,8.6,30.06,NNW,329,7.0,12.0,18,0.00,,,0.00,meteohub,2013-10-21 20:52:00,
2013-10-21 14:57:00,51.4,9.3,30.06,WNW,287,1.0,15.0,18,0.00,,,0.00,meteohub,2013-10-21 20:57:00,
2013-10-21 15:02:00,51.4,9.3,30.06,NW,326,5.0,15.0,18,0.00,,,0.00,meteohub,2013-10-21 21:02:00,
2013-10-21 15:07:00,51.3,10.4,30.06,NW,320,3.0,15.0,19,0.00,,,0.00,meteohub,2013-10-21 21:07:00,
2013-10-21 15:12:00,52.0,10.9,30.06,NNW,332,1.0,15.0,19,0.00,,,0.00,meteohub,2013-10-21 21:12:00,
2013-10-21 15:17:00,52.3,10.0,30.06,NNW,342,8.0,15.0,18,0.00,,,0.00,meteohub,2013-10-21 21:17:00,
2013-10-21 15:22:00,52.0,10.9,30.06,WNW,288,5.0,12.0,19,0.00,,,0.00,meteohub,2013-10-21 21:22:00,
2013-10-21 15:27:00,52.0,9.7,30.06,NW,308,8.0,16.0,18,0.00,,,0.00,meteohub,2013-10-21 21:27:00,
2013-10-21 15:32:00,52.3,8.8,30.06,NW,319,7.0,16.0,17,0.00,,,0.00,meteohub,2013-10-21 21:32:00,
2013-10-21 15:37:00,52.5,9.0,30.06,WNW,300,7.0,13.0,17,0.00,,,0.00,meteohub,2013-10-21 21:37:00,
2013-10-21 15:42:00,52.5,10.2,30.07,NNW,330,5.0,12.0,18,0.00,,,0.00,meteohub,2013-10-21 21:42:00,
2013-10-21 15:47:00,52.3,10.0,30.07,NNW,335,11.0,12.0,18,0.00,,,0.00,meteohub,2013-10-21 21:47:00,
2013-10-21 15:52:00,52.3,10.0,30.06,WNW,291,2.0,18.0,18,0.00,,,0.00,meteohub,2013-10-21 21:52:00,
2013-10-21 15:57:00,52.3,8.8,30.07,NNW,328,16.0,18.0,17,0.00,,,0.00,meteohub,2013-10-21 21:57:00,
2013-10-21 16:02:00,52.0,8.4,30.07,NW,323,4.0,18.0,17,0.00,,,0.00,meteohub,2013-10-21 22:02:00,
2013-10-21 16:07:00,52.0,8.4,30.07,NNW,329,8.0,17.0,17,0.00,,,0.00,meteohub,2013-10-21 22:07:00,
2013-10-21 16:12:00,51.6,8.2,30.07,NNW,338,3.0,17.0,17,0.00,,,0.00,meteohub,2013-10-21 22:12:00,
2013-10-21 16:17:00,51.8,8.4,30.07,North,353,9.0,16.0,17,0.00,,,0.00,meteohub,2013-10-21 22:17:00,
2013-10-21 16:22:00,52.3,10.0,30.07,SSE,148,4.0,17.0,18,0.00,,,0.00,meteohub,2013-10-21 22:22:00,
2013-10-21 16:27:00,52.5,9.0,30.08,NNW,330,5.0,17.0,17,0.00,,,0.00,meteohub,2013-10-21 22:27:00,
2013-10-21 16:32:00,52.5,10.2,30.07,NNW,334,4.0,17.0,18,0.00,,,0.00,meteohub,2013-10-21 22:32:00,
2013-10-21 16:37:00,52.5,10.2,30.08,NNW,336,7.0,10.0,18,0.00,,,0.00,meteohub,2013-10-21 22:37:00,
2013-10-21 16:42:00,52.3,11.3,30.08,NW,318,3.0,11.0,19,0.00,,,0.00,meteohub,2013-10-21 22:42:00,
2013-10-21 16:47:00,52.7,10.4,30.08,North,0,2.0,11.0,18,0.00,,,0.00,meteohub,2013-10-21 22:47:00,
2013-10-21 16:52:00,52.3,10.0,30.08,NNW,338,4.0,11.0,18,0.00,,,0.00,meteohub,2013-10-21 22:52:00,
2013-10-21 16:57:00,52.2,9.9,30.08,NW,308,4.0,9.0,18,0.00,,,0.00,meteohub,2013-10-21 22:57:00,
2013-10-21 17:02:00,52.5,10.2,30.08,NW,316,2.0,9.0,18,0.00,,,0.00,meteohub,2013-10-21 23:02:00,
2013-10-21 17:07:00,52.5,11.5,30.09,WNW,291,4.0,9.0,19,0.00,,,0.00,meteohub,2013-10-21 23:07:00,
2013-10-21 17:12:00,52.3,10.0,30.09,NW,314,5.0,10.0,18,0.00,,,0.00,meteohub,2013-10-21 23:12:00,
2013-10-21 17:17:00,51.6,10.8,30.09,WNW,298,6.0,12.0,19,0.00,,,0.00,meteohub,2013-10-21 23:17:00,
2013-10-21 17:22:00,51.4,11.7,30.09,NW,307,5.0,12.0,20,0.00,,,0.00,meteohub,2013-10-21 23:22:00,
2013-10-21 17:27:00,51.4,11.7,30.09,WNW,302,8.0,14.0,20,0.00,,,0.00,meteohub,2013-10-21 23:27:00,
2013-10-21 17:32:00,51.4,11.7,30.09,North,1,4.0,14.0,20,0.00,,,0.00,meteohub,2013-10-21 23:32:00,
2013-10-21 17:37:00,51.3,12.6,30.09,WNW,300,5.0,14.0,21,0.00,,,0.00,meteohub,2013-10-21 23:37:00,
2013-10-21 17:42:00,51.1,12.6,30.09,NW,326,10.0,14.0,21,0.00,,,0.00,meteohub,2013-10-21 23:42:00,
2013-10-21 17:47:00,50.5,13.1,30.09,NNW,333,6.0,15.0,22,0.00,,,0.00,meteohub,2013-10-21 23:47:00,
2013-10-21 17:52:00,49.8,12.6,30.09,NNW,328,6.0,17.0,22,0.00,,,0.00,meteohub,2013-10-21 23:52:00,
2013-10-21 17:57:00,49.6,13.3,30.10,NNW,330,9.0,17.0,23,0.00,,,0.00,meteohub,2013-10-21 23:57:00,
2013-10-21 18:02:00,49.5,13.1,30.10,NNW,338,9.0,15.0,23,0.00,,,0.00,meteohub,2013-10-22 00:02:00,
2013-10-21 18:07:00,49.1,13.8,30.10,NW,308,5.0,15.0,24,0.00,,,0.00,meteohub,2013-10-22 00:07:00,
2013-10-21 18:12:00,48.7,13.5,30.10,NW,306,7.0,14.0,24,0.00,,,0.00,meteohub,2013-10-22 00:12:00,
2013-10-21 18:17:00,48.6,13.5,30.10,WNW,297,5.0,13.0,24,0.00,,,0.00,meteohub,2013-10-22 00:17:00,
2013-10-21 18:22:00,48.2,13.1,30.11,NW,326,6.0,13.0,24,0.00,,,0.00,meteohub,2013-10-22 00:22:00,
2013-10-21 18:27:00,47.8,12.7,30.11,NW,314,4.0,13.0,24,0.00,,,0.00,meteohub,2013-10-22 00:27:00,
2013-10-21 18:32:00,47.7,12.6,30.11,WNW,302,2.0,12.0,24,0.00,,,0.00,meteohub,2013-10-22 00:32:00,
2013-10-21 18:38:00,47.3,13.3,30.11,WNW,302,3.0,9.0,25,0.00,,,0.00,meteohub,2013-10-22 00:38:00,
2013-10-21 18:43:00,46.9,12.9,30.11,NW,325,6.0,9.0,25,0.00,,,0.00,meteohub,2013-10-22 00:43:00,
2013-10-21 18:48:00,46.9,12.9,30.11,NW,320,4.0,9.0,25,0.00,,,0.00,meteohub,2013-10-22 00:48:00,
2013-10-21 18:53:00,46.4,13.3,30.12,NW,315,3.0,11.0,26,0.00,,,0.00,meteohub,2013-10-22 00:53:00,
2013-10-21 18:58:00,45.9,12.9,30.12,NNW,332,6.0,11.0,26,0.00,,,0.00,meteohub,2013-10-22 00:58:00,
2013-10-21 19:03:00,46.0,14.0,30.12,NNW,338,8.0,9.0,27,0.00,,,0.00,meteohub,2013-10-22 01:03:00,
2013-10-21 19:08:00,46.0,14.0,30.12,NNW,331,8.0,10.0,27,0.00,,,0.00,meteohub,2013-10-22 01:08:00,
2013-10-21 19:13:00,45.5,13.5,30.12,NNW,347,10.0,13.0,27,0.00,,,0.00,meteohub,2013-10-22 01:13:00,
2013-10-21 19:18:00,45.0,12.9,30.12,North,1,8.0,14.0,27,0.00,,,0.00,meteohub,2013-10-22 01:18:00,
2013-10-21 19:23:00,45.0,12.2,30.12,NNE,19,10.0,14.0,26,0.00,,,0.00,meteohub,2013-10-22 01:23:00,
2013-10-21 19:28:00,45.1,12.2,30.12,North,349,5.0,14.0,26,0.00,,,0.00,meteohub,2013-10-22 01:28:00,
2013-10-21 19:33:00,44.8,12.7,30.12,NNE,30,8.0,14.0,27,0.00,,,0.00,meteohub,2013-10-22 01:33:00,
2013-10-21 19:38:00,44.1,12.2,30.13,NNW,339,8.0,14.0,27,0.00,,,0.00,meteohub,2013-10-22 01:38:00,
2013-10-21 19:44:00,43.9,12.0,30.13,NNW,333,7.0,13.0,27,0.00,,,0.00,meteohub,2013-10-22 01:44:00,
2013-10-21 19:49:00,43.5,12.6,30.12,NNW,328,7.0,13.0,28,0.00,,,0.00,meteohub,2013-10-22 01:49:00,
2013-10-21 19:54:00,43.2,12.2,30.13,NW,321,6.0,15.0,28,0.00,,,0.00,meteohub,2013-10-22 01:54:00,
2013-10-21 19:59:00,43.5,13.3,30.14,NW,322,7.0,15.0,29,0.00,,,0.00,meteohub,2013-10-22 01:59:00,
2013-10-21 20:04:00,43.7,13.5,30.14,NNW,337,4.0,16.0,29,0.00,,,0.00,meteohub,2013-10-22 02:04:00,
2013-10-21 20:09:00,43.3,13.3,30.14,NNW,331,8.0,16.0,29,0.00,,,0.00,meteohub,2013-10-22 02:09:00,
2013-10-21 20:14:00,43.2,13.8,30.14,NNW,335,10.0,13.0,30,0.00,,,0.00,meteohub,2013-10-22 02:14:00,
2013-10-21 20:19:00,42.8,13.5,30.15,NNW,330,10.0,15.0,30,0.00,,,0.00,meteohub,2013-10-22 02:19:00,
2013-10-21 20:24:00,43.0,13.6,30.14,NNW,333,10.0,18.0,30,0.00,,,0.00,meteohub,2013-10-22 02:24:00,
2013-10-21 20:29:00,42.4,14.0,30.15,NNW,335,12.0,18.0,31,0.00,,,0.00,meteohub,2013-10-22 02:29:00,
2013-10-21 20:34:00,42.1,14.4,30.15,NW,313,13.0,18.0,32,0.00,,,0.00,meteohub,2013-10-22 02:34:00,
2013-10-21 20:39:00,42.3,15.3,30.15,NNW,336,16.0,17.0,33,0.00,,,0.00,meteohub,2013-10-22 02:39:00,
2013-10-21 20:44:00,42.6,16.2,30.15,NNW,342,13.0,19.0,34,0.00,,,0.00,meteohub,2013-10-22 02:44:00,
2013-10-21 20:50:00,43.0,16.5,30.15,NNW,333,11.0,23.0,34,0.00,,,0.00,meteohub,2013-10-22 02:50:00,
2013-10-21 20:55:00,42.6,16.2,30.16,NNW,333,13.0,26.0,34,0.00,,,0.00,meteohub,2013-10-22 02:55:00,
2013-10-21 21:00:00,42.4,16.7,30.16,NNE,12,7.0,26.0,35,0.00,,,0.00,meteohub,2013-10-22 03:00:00,
2013-10-21 21:05:00,41.7,16.7,30.15,NNW,331,7.0,26.0,36,0.00,,,0.00,meteohub,2013-10-22 03:05:00,
2013-10-21 21:10:00,41.5,16.5,30.15,NW,326,10.0,19.0,36,0.00,,,0.00,meteohub,2013-10-22 03:10:00,
2013-10-21 21:15:00,41.4,16.3,30.15,NNW,335,14.0,19.0,36,0.00,,,0.00,meteohub,2013-10-22 03:15:00,
2013-10-21 21:20:00,41.5,16.5,30.15,North,6,8.0,17.0,36,0.00,,,0.00,meteohub,2013-10-22 03:20:00,
2013-10-21 21:25:00,41.5,16.5,30.16,NW,313,11.0,15.0,36,0.00,,,0.00,meteohub,2013-10-22 03:25:00,
2013-10-21 21:30:00,41.4,16.3,30.16,North,351,8.0,16.0,36,0.00,,,0.00,meteohub,2013-10-22 03:30:00,
2013-10-21 21:35:00,40.6,16.3,30.16,North,7,8.0,16.0,37,0.00,,,0.00,meteohub,2013-10-22 03:35:00,
2013-10-21 21:40:00,39.7,16.9,30.16,NNW,336,6.0,14.0,39,0.00,,,0.00,meteohub,2013-10-22 03:40:00,
2013-10-21 21:45:00,39.4,17.1,30.16,NNW,328,3.0,13.0,40,0.00,,,0.00,meteohub,2013-10-22 03:45:00,
2013-10-21 21:50:00,39.0,17.2,30.17,North,3,3.0,13.0,41,0.00,,,0.00,meteohub,2013-10-22 03:50:00,
2013-10-21 21:56:00,38.7,17.1,30.17,NW,321,2.0,13.0,41,0.00,,,0.00,meteohub,2013-10-22 03:56:00,
2013-10-21 22:01:00,38.5,17.4,30.17,NW,315,0.0,8.0,42,0.00,,,0.00,meteohub,2013-10-22 04:01:00,
2013-10-21 22:02:00,38.5,17.4,30.17,North,354,2.0,8.0,42,0.00,,,0.00,meteohub,2013-10-22 04:02:00,
2013-10-21 22:03:00,38.5,17.4,30.17,WNW,293,2.0,8.0,42,0.00,,,0.00,meteohub,2013-10-22 04:03:00,
2013-10-21 22:04:00,38.5,17.4,30.17,NW,311,2.0,8.0,42,0.00,,,0.00,meteohub,2013-10-22 04:04:00,
2013-10-21 22:06:00,38.5,16.9,30.17,NW,304,1.0,4.0,41,0.00,,,0.00,meteohub,2013-10-22 04:06:00,
2013-10-21 22:11:00,38.7,17.1,30.17,NW,326,6.0,9.0,41,0.00,,,0.00,meteohub,2013-10-22 04:11:00,
2013-10-21 22:16:00,38.8,17.1,30.18,NNW,347,8.0,11.0,41,0.00,,,0.00,meteohub,2013-10-22 04:16:00,
2013-10-21 22:21:00,39.2,17.4,30.18,NNW,347,6.0,16.0,41,0.00,,,0.00,meteohub,2013-10-22 04:21:00,
2013-10-21 22:26:00,38.8,16.5,30.19,NW,312,2.0,16.0,40,0.00,,,0.00,meteohub,2013-10-22 04:26:00,
2013-10-21 22:31:00,39.0,17.2,30.19,NW,321,4.0,16.0,41,0.00,,,0.00,meteohub,2013-10-22 04:31:00,
2013-10-21 22:36:00,39.2,17.4,30.19,NW,326,5.0,12.0,41,0.00,,,0.00,meteohub,2013-10-22 04:36:00,
2013-10-21 22:41:00,38.7,17.6,30.20,North,4,5.0,12.0,42,0.00,,,0.00,meteohub,2013-10-22 04:41:00,
2013-10-21 22:46:00,38.1,17.6,30.20,NNW,330,6.0,11.0,43,0.00,,,0.00,meteohub,2013-10-22 04:46:00,
2013-10-21 22:51:00,37.9,18.0,30.19,NNW,331,7.0,10.0,44,0.00,,,0.00,meteohub,2013-10-22 04:51:00,
2013-10-21 22:56:00,37.6,17.6,30.20,NW,307,3.0,10.0,44,0.00,,,0.00,meteohub,2013-10-22 04:56:00,
2013-10-21 23:01:00,37.2,17.8,30.20,NW,311,4.0,10.0,45,0.00,,,0.00,meteohub,2013-10-22 05:01:00,
2013-10-21 23:07:00,37.6,18.7,30.21,NW,326,13.0,16.0,46,0.00,,,0.00,meteohub,2013-10-22 05:07:00,
2013-10-21 23:12:00,37.8,18.9,30.21,NW,322,9.0,16.0,46,0.00,,,0.00,meteohub,2013-10-22 05:12:00,
2013-10-21 23:17:00,37.6,19.2,30.21,NW,322,7.0,16.0,47,0.00,,,0.00,meteohub,2013-10-22 05:17:00,
2013-10-21 23:22:00,37.6,19.2,30.21,NW,318,8.0,14.0,47,0.00,,,0.00,meteohub,2013-10-22 05:22:00,
2013-10-21 23:27:00,37.6,18.7,30.21,NNW,342,8.0,11.0,46,0.00,,,0.00,meteohub,2013-10-22 05:27:00,
2013-10-21 23:32:00,37.9,18.5,30.22,NW,326,7.0,12.0,45,0.00,,,0.00,meteohub,2013-10-22 05:32:00,
2013-10-21 23:37:00,37.6,18.1,30.22,NNW,339,8.0,12.0,45,0.00,,,0.00,meteohub,2013-10-22 05:37:00,
2013-10-21 23:42:00,37.9,18.5,30.22,NW,319,4.0,12.0,45,0.00,,,0.00,meteohub,2013-10-22 05:42:00,
2013-10-21 23:47:00,37.6,18.1,30.22,NNW,338,7.0,12.0,45,0.00,,,0.00,meteohub,2013-10-22 05:47:00,
2013-10-21 23:52:00,37.2,17.8,30.22,NNW,333,6.0,12.0,45,0.00,,,0.00,meteohub,2013-10-22 05:52:00,
2013-10-21 23:57:00,36.9,18.0,30.23,NNW,337,4.0,10.0,46,0.00,,,0.00,meteohub,2013-10-22 05:57:00,